Temp
4 4 4 4 3 3 3 3 3 3 3 3 3 2 2 1 1 1 0 0 -0 -0 -1 -1 -2 -2 -2 -3 -3 -3 -3 -3 -4 -4 -4 -4 -5 -5 -5 -5 -5 -5 -5 -6 -6 -6 -6 -6 -6 -6 -6 -6 -6 -6 -7 -7 -7 -7 -7 -7 -7 -7 -8 -8 -8 -8 -8 -8 -9
4 4 4 3 3 3 3 3 3 3 3 3 3 2 2 1 1 1 0 0 -0 -0 -1 -1 -2 -2 -3 -3 -3 -3 -3 -4 -4 -4 -4 -4 -5 -5 -5 -5 -5 -5 -6 -6 -6 -6 -6 -6 -6 -6 -6 -7 -7 -7 -7 -7 -7 -7 -7 -7 -7 -8 -8 -8 -8 -8 -8 -9 -9
4 4 4 3 3 3 3 3 3 3 3 3 3 2 2 1 1 1 0 0 -0 -1 -1 -2 -2 -2 -3 -3 -3 -3 -3 -4 -4 -4 -4 -4 -5 -5 -5 -5 -5 -5 -6 -6 -6 -6 -6 -6 -6 -7 -7 -7 -7 -7 -7 -7 -7 -7 -7 -7 -8 -8 -8 -8 -8 -9 -9 -9 -9
4 4 3 3 3 3 3 3 3 3 3 3 3 2 2 1 1 0 0 -0 -1 -1 -1 -2 -2 -2 -3 -3 -3 -3 -4 -4 -4 -4 -4 -5 -5 -5 -5 -5 -5 -6 -6 -6 -6 -6 -6 -6 -6 -7 -7 -7 -7 -7 -7 -7 -7 -7 -7 -7 -8 -8 -8 -8 -9 -9 -9 -9 -9
4 4 4 3 3 3 3 3 3 3 3 3 2 2 1 1 1 0 -0 -0 -1 -1 -1 -2 -2 -2 -3 -3 -3 -4 -4 -4 -4 -4 -4 -5 -5 -5 -5 -5 -5 -6 -6 -6 -6 -6 -6 -6 -7 -7 -7 -7 -7 -7 -7 -7 -7 -7 -7 -8 -8 -8 -8 -8 -8 -8 -8 -9 -9
4 4 4 4 4 3 3 3 3 3 3 2 2 2 1 1 1 0 -0 -0 -0 -1 -1 -2 -2 -3 -3 -3 -4 -4 -4 -4 -4 -4 -5 -5 -5 -5 -5 -5 -5 -6 -6 -6 -6 -6 -6 -6 -6 -7 -7 -7 -7 -7 -7 -7 -7 -7 -7 -8 -8 -8 -8 -8 -8 -8 -8 -9 -9
4 4 4 4 3 3 3 3 3 3 2 2 2 1 1 1 1 0 0 -0 -0 -1 -1 -2 -2 -3 -3 -4 -4 -4 -4 -4 -4 -4 -5 -5 -5 -5 -5 -5 -6 -6 -6 -6 -6 -6 -6 -6 -6 -7 -7 -7 -7 -7 -7 -7 -7 -7 -7 -8 -8 -8 -8 -8 -8 -8 -8 -9 -9
4 4 4 4 4 3 3 3 3 2 2 2 2 2 1 1 1 0 -0 -0 -1 -1 -2 -2 -2 -3 -3 -4 -4 -4 -4 -4 -4 -4 -4 -5 -5 -5 -5 -5 -6 -6 -6 -6 -6 -6 -6 -6 -6 -6 -7 -7 -7 -7 -7 -7 -7 -7 -7 -7 -8 -8 -8 -8 -8 -8 -8 -8 -8
3 3 4 4 4 3 3 3 2 2 2 2 2 2 1 1 1 0 -0 -1 -1 -1 -2 -2 -3 -3 -3 -4 -4 -4 -4 -4 -4 -4 -4 -5 -5 -5 -5 -5 -6 -6 -6 -6 -6 -6 -6 -6 -6 -6 -6 -7 -7 -7 -7 -7 -7 -7 -7 -8 -8 -8 -8 -8 -8 -8 -8 -8 -8
3 3 4 3 3 3 3 2 2 2 2 2 2 2 1 1 0 0 -0 -0 -1 -1 -2 -2 -3 -3 -4 -4 -4 -4 -4 -4 -4 -4 -4 -5 -5 -5 -5 -5 -5 -5 -5 -6 -6 -6 -6 -6 -6 -6 -6 -6 -6 -6 -6 -6 -7 -7 -7 -8 -8 -8 -8 -8 -8 -8 -8 -8 -8
3 3 4 4 4 3 3 2 2 1 1 1 1 1 1 1 0 0 -0 -1 -1 -1 -2 -2 -3 -3 -3 -4 -4 -4 -4 -4 -4 -4 -4 -5 -5 -5 -5 -5 -5 -5 -5 -5 -5 -6 -6 -6 -6 -6 -6 -6 -6 -6 -6 -6 -7 -7 -7 -7 -8 -8 -8 -8 -8 -8 -8 -8 -8
3 3 4 4 4 3 2 2 1 1 1 1 1 1 1 1 0 0 -0 -1 -1 -1 -2 -2 -3 -3 -3 -4 -4 -4 -4 -4 -4 -4 -4 -5 -5 -5 -5 -5 -5 -5 -5 -5 -5 -6 -6 -6 -6 -6 -6 -6 -6 -6 -6 -6 -7 -7 -7 -7 -7 -8 -8 -8 -7 -8 -8 -8 -8
3 3 3 3 3 3 2 2 1 1 1 1 1 1 1 1 0 -0 -1 -1 -1 -1 -2 -2 -3 -3 -3 -4 -4 -4 -4 -4 -4 -4 -5 -5 -5 -5 -5 -5 -5 -5 -5 -5 -5 -5 -6 -6 -6 -6 -6 -6 -6 -6 -6 -6 -7 -7 -7 -7 -7 -7 -7 -7 -7 -7 -7 -8 -8
2 3 3 3 3 3 2 2 1 1 1 1 1 1 1 1 0 -0 -1 -1 -1 -1 -2 -2 -3 -3 -3 -3 -4 -4 -4 -4 -4 -4 -5 -5 -5 -5 -5 -5 -5 -5 -5 -5 -5 -5 -5 -6 -6 -6 -6 -6 -6 -6 -6 -6 -7 -7 -7 -7 -7 -7 -7 -7 -7 -7 -7 -7 -7
1 2 2 3 2 2 2 1 1 1 1 1 1 1 1 1 0 -0 -1 -1 -1 -1 -2 -2 -3 -3 -3 -3 -4 -4 -4 -4 -4 -5 -5 -5 -5 -5 -5 -5 -5 -5 -5 -5 -5 -5 -5 -5 -5 -5 -6 -6 -6 -6 -6 -6 -6 -7 -7 -7 -7 -7 -7 -7 -7 -7 -7 -7 -7
1 1 2 2 2 2 1 1 1 1 1 1 1 1 1 1 0 -0 -1 -1 -1 -1 -2 -2 -3 -3 -3 -3 -4 -4 -4 -4 -4 -5 -5 -5 -5 -5 -5 -5 -5 -5 -5 -5 -5 -5 -5 -5 -5 -5 -6 -6 -6 -6 -6 -6 -6 -6 -6 -6 -6 -6 -6 -6 -6 -7 -7 -7 -7
0 1 1 1 1 1 1 1 1 1 1 1 1 1 1 1 0 -0 -1 -1 -1 -2 -2 -2 -3 -3 -3 -3 -4 -4 -4 -4 -4 -5 -5 -5 -5 -5 -5 -5 -5 -5 -5 -5 -5 -5 -5 -5 -5 -5 -5 -6 -6 -6 -6 -6 -6 -6 -6 -5 -6 -6 -6 -6 -6 -6 -6 -6 -6
-0 0 1 1 1 1 1 1 1 1 1 1 1 1 1 1 0 -0 -0 -1 -1 -2 -2 -2 -3 -3 -3 -3 -4 -4 -4 -4 -4 -4 -4 -5 -5 -5 -5 -5 -5 -5 -5 -5 -5 -5 -5 -5 -5 -5 -5 -6 -6 -6 -6 -6 -6 -5 -5 -5 -5 -5 -5 -5 -6 -6 -6 -6 -6
-0 -0 0 0 1 1 1 1 1 1 1 1 1 1 1 1 0 0 -0 -1 -1 -1 -2 -2 -3 -3 -3 -3 -4 -4 -4 -4 -4 -4 -4 -4 -5 -5 -5 -5 -5 -5 -5 -5 -5 -5 -5 -5 -5 -5 -5 -6 -6 -6 -5 -5 -5 -5 -5 -5 -5 -5 -5 -5 -5 -5 -5 -5 -5
-1 -0 -0 1 1 2 2 2 2 2 1 1 1 1 1 1 0 0 -0 -1 -1 -1 -2 -2 -3 -3 -3 -3 -4 -4 -4 -4 -4 -4 -4 -4 -5 -5 -5 -5 -5 -5 -5 -5 -5 -5 -5 -5 -5 -5 -5 -5 -5 -5 -5 -5 -5 -5 -4 -4 -5 -5 -5 -5 -4 -4 -4 -5 -5
-1 -0 0 1 1 2 2 2 2 2 1 1 1 1 1 1 0 0 -0 -1 -1 -1 -2 -2 -3 -3 -3 -3 -4 -4 -4 -4 -4 -4 -4 -4 -5 -5 -5 -5 -5 -5 -5 -5 -5 -5 -5 -5 -5 -5 -5 -5 -5 -5 -5 -4 -4 -4 -4 -4 -5 -4 -4 -4 -4 -4 -4 -5 -5
-1 0 1 1 2 2 2 2 2 1 1 1 1 1 1 0 0 0 -0 -1 -1 -2 -2 -2 -3 -3 -3 -3 -4 -4 -4 -4 -4 -4 -4 -4 -5 -5 -5 -5 -5 -5 -5 -5 -5 -5 -5 -5 -5 -5 -5 -5 -5 -5 -4 -4 -4 -4 -4 -4 -4 -4 -4 -4 -4 -4 -5 -5 -5
-0 0 0 1 1 2 2 1 1 1 1 1 1 1 1 0 0 0 -0 -1 -1 -2 -2 -2 -3 -3 -3 -3 -4 -4 -4 -4 -4 -4 -4 -4 -5 -5 -5 -5 -5 -5 -5 -5 -5 -5 -5 -5 -5 -5 -5 -5 -5 -4 -4 -4 -4 -4 -4 -4 -4 -3 -3 -4 -4 -4 -5 -5 -5
-0 -0 0 0 1 1 1 1 0 0 0 0 1 1 1 0 0 -0 -1 -1 -1 -2 -2 -2 -3 -3 -3 -4 -4 -4 -4 -4 -4 -4 -4 -4 -4 -5 -5 -5 -5 -5 -5 -5 -5 -5 -5 -5 -5 -5 -5 -5 -4 -4 -4 -4 -4 -4 -3 -3 -3 -3 -4 -4 -4 -4 -4 -4 -4
-1 -1 -0 -0 -0 0 0 -0 -0 -0 0 1 1 1 0 0 -0 -0 -1 -1 -1 -2 -2 -2 -3 -3 -3 -4 -4 -4 -4 -4 -4 -4 -4 -4 -4 -4 -5 -5 -5 -5 -5 -5 -5 -5 -5 -6 -5 -5 -5 -4 -4 -4 -3 -3 -3 -3 -3 -3 -3 -4 -4 -4 -4 -4 -4 -4 -4
-1 -1 -1 -1 -1 -0 -1 -0 -0 0 0 1 0 0 0 0 -0 -0 -1 -1 -1 -2 -2 -2 -3 -3 -3 -4 -4 -4 -4 -4 -4 -4 -4 -4 -4 -4 -5 -5 -5 -5 -5 -5 -5 -5 -5 -5 -4 -4 -4 -4 -3 -3 -3 -3 -3 -3 -3 -3 -3 -4 -4 -4 -4 -4 -4 -4 -4
-2 -1 -1 -1 -1 -1 -1 -1 -0 -0 -0 0 -0 -0 0 0 -0 -1 -1 -1 -1 -2 -2 -2 -3 -3 -4 -4 -4 -4 -4 -4 -4 -4 -4 -4 -4 -4 -5 -5 -5 -5 -5 -4 -5 -5 -5 -5 -4 -4 -3 -3 -3 -3 -3 -3 -3 -3 -3 -3 -4 -4 -4 -4 -4 -4 -4 -4 -4
-2 -2 -2 -2 -2 -1 -1 -1 -1 -1 -1 -0 -0 -0 -0 -0 -1 -1 -1 -1 -1 -2 -2 -2 -3 -3 -4 -4 -4 -4 -4 -4 -4 -4 -4 -4 -4 -5 -5 -5 -5 -5 -4 -4 -5 -5 -5 -4 -4 -3 -3 -3 -3 -3 -3 -2 -2 -3 -3 -3 -3 -4 -4 -4 -4 -4 -5 -5 -5
-2 -2 -2 -2 -2 -2 -2 -1 -1 -1 -1 -0 -0 -0 -1 -1 -1 -1 -1 -1 -2 -2 -2 -2 -3 -3 -4 -4 -4 -4 -4 -4 -4 -4 -4 -4 -4 -4 -5 -5 -5 -4 -4 -4 -5 -5 -5 -4 -4 -3 -3 -3 -3 -2 -2 -2 -2 -3 -3 -3 -3 -3 -4 -4 -4 -4 -5 -5 -5
-2 -2 -2 -2 -2 -2 -2 -2 -1 -1 -1 -1 -1 -1 -1 -1 -1 -1 -2 -2 -2 -2 -2 -2 -3 -3 -3 -3 -4 -4 -4 -4 -4 -4 -4 -4 -4 -4 -4 -4 -4 -4 -4 -5 -5 -5 -5 -4 -4 -3 -3 -3 -2 -2 -2 -2 -2 -3 -3 -3 -3 -3 -4 -4 -4 -5 -5 -5 -5
-2 -2 -2 -2 -2 -2 -2 -2 -1 -1 -1 -1 -2 -2 -2 -2 -2 -2 -2 -2 -2 -2 -2 -2 -3 -3 -3 -3 -3 -4 -4 -4 -4 -4 -4 -4 -4 -4 -4 -4 -4 -4 -4 -5 -5 -5 -5 -4 -4 -3 -3 -2 -2 -2 -2 -2 -2 -3 -3 -3 -3 -3 -4 -4 -4 -5 -5 -5 -5
-2 -2 -2 -2 -3 -2 -2 -2 -2 -2 -2 -2 -2 -2 -2 -2 -2 -1 -1 -2 -2 -2 -2 -3 -3 -3 -3 -3 -3 -3 -3 -4 -4 -4 -4 -4 -4 -4 -4 -4 -4 -4 -4 -5 -5 -5 -5 -4 -4 -3 -3 -3 -2 -2 -2 -2 -2 -2 -3 -3 -3 -3 -4 -4 -4 -5 -5 -5 -5
-2 -2 -3 -3 -3 -3 -3 -3 -2 -2 -3 -3 -3 -3 -2 -2 -2 -2 -2 -2 -2 -2 -3 -3 -3 -3 -3 -3 -3 -3 -3 -3 -3 -4 -4 -4 -4 -4 -4 -4 -4 -4 -4 -5 -5 -5 -4 -4 -4 -3 -3 -3 -2 -2 -2 -2 -2 -3 -3 -3 -3 -3 -4 -4 -4 -4 -5 -5 -5
-3 -3 -3 -3 -3 -3 -3 -3 -3 -3 -3 -3 -3 -3 -2 -2 -2 -2 -2 -2 -2 -2 -2 -2 -2 -3 -3 -3 -3 -3 -3 -3 -3 -4 -4 -4 -4 -4 -4 -4 -4 -4 -5 -5 -5 -5 -4 -4 -4 -3 -3 -3 -2 -2 -2 -2 -2 -3 -3 -3 -3 -3 -4 -4 -4 -4 -5 -5 -5
-3 -3 -3 -3 -3 -3 -3 -3 -3 -3 -3 -3 -3 -3 -3 -2 -2 -2 -2 -2 -2 -2 -2 -2 -2 -3 -3 -3 -3 -3 -3 -3 -3 -4 -4 -4 -4 -4 -4 -4 -4 -4 -5 -5 -5 -5 -4 -4 -4 -3 -3 -3 -3 -3 -3 -2 -3 -3 -3 -3 -3 -3 -4 -4 -4 -4 -4 -4 -5
-3 -3 -3 -3 -3 -3 -3 -3 -4 -4 -4 -4 -3 -3 -3 -3 -2 -2 -2 -2 -3 -3 -3 -2 -3 -3 -3 -3 -3 -3 -3 -3 -3 -4 -4 -4 -4 -4 -4 -4 -4 -4 -5 -5 -5 -5 -5 -4 -4 -4 -3 -3 -3 -3 -3 -3 -3 -3 -3 -3 -3 -3 -4 -4 -4 -4 -4 -4 -4
-3 -3 -3 -3 -3 -3 -3 -4 -4 -4 -4 -4 -3 -3 -3 -3 -3 -3 -3 -3 -3 -3 -3 -3 -3 -3 -3 -3 -3 -3 -3 -3 -3 -3 -4 -4 -4 -4 -4 -4 -4 -4 -5 -5 -5 -5 -5 -4 -4 -4 -3 -3 -3 -3 -3 -3 -3 -3 -3 -3 -3 -4 -4 -4 -4 -4 -4 -4 -4
-3 -3 -3 -3 -3 -3 -4 -4 -4 -4 -4 -4 -3 -3 -3 -3 -3 -3 -3 -3 -3 -3 -2 -3 -3 -3 -3 -3 -3 -3 -3 -3 -3 -3 -4 -4 -4 -4 -4 -5 -5 -4 -5 -5 -5 -5 -5 -5 -4 -4 -3 -3 -3 -3 -3 -3 -3 -3 -3 -3 -3 -4 -4 -4 -4 -4 -4 -4 -4
-3 -3 -3 -3 -3 -3 -4 -4 -4 -4 -4 -3 -3 -3 -3 -3 -3 -3 -3 -3 -3 -2 -2 -2 -2 -2 -2 -3 -3 -3 -3 -3 -3 -3 -4 -4 -4 -4 -5 -5 -5 -5 -5 -5 -5 -5 -5 -5 -4 -4 -4 -3 -3 -3 -3 -3 -3 -3 -3 -3 -3 -3 -3 -3 -4 -4 -4 -4 -4
-3 -3 -3 -3 -3 -3 -4 -4 -4 -3 -3 -3 -3 -3 -3 -3 -3 -3 -3 -3 -2 -2 -2 -2 -2 -2 -2 -3 -3 -3 -3 -3 -3 -3 -4 -4 -4 -4 -5 -5 -5 -5 -5 -5 -5 -5 -5 -5 -4 -4 -4 -3 -3 -3 -3 -3 -3 -3 -3 -3 -3 -3 -3 -3 -4 -4 -4 -4 -4
-3 -3 -3 -3 -3 -3 -3 -4 -4 -3 -3 -3 -3 -3 -3 -3 -3 -3 -3 -3 -2 -2 -2 -2 -3 -3 -3 -3 -4 -4 -3 -3 -3 -3 -4 -4 -4 -4 -5 -5 -5 -5 -5 -5 -5 -5 -5 -5 -5 -4 -4 -3 -3 -3 -3 -3 -3 -3 -3 -3 -3 -3 -3 -3 -4 -4 -4 -4 -4
Height
809 810 811 812 813 814 814 815 816 816 817 818 819 819 820 821 821 821 822 822 823 823 823 823 824 824 824 825 825 825 825 825 825 825 825 824 824 824 824 824 824 823 823 823 822 822 822 821 821 820 819 818 817 816 816 815 815 815 814 813 812 812 811 810 809 808 807 807 806
806 808 809 810 811 811 812 813 814 814 815 815 816 817 818 819 819 820 820 820 820 821 821 822 822 822 822 822 823 823 823 823 823 823 823 822 822 822 822 822 822 821 821 821 820 820 820 819 819 818 817 816 815 814 814 813 813 813 812 811 810 810 809 808 806 805 805 804 804
804 805 806 807 808 809 810 810 811 812 813 813 815 815 816 817 817 817 818 818 819 819 820 820 820 820 820 820 821 821 821 821 821 821 821 821 820 820 820 820 820 820 819 819 819 818 818 817 817 816 815 814 813 812 811 811 811 811 810 809 808 808 807 806 805 804 803 802 801
801 803 804 805 805 806 807 807 808 809 810 811 813 814 814 815 815 815 816 816 817 817 817 818 818 818 819 819 819 819 819 819 819 819 819 819 819 819 819 818 818 818 817 817 817 816 816 815 815 814 813 812 811 810 810 809 809 809 808 807 806 805 805 804 803 802 801 800 799
799 800 801 802 803 804 805 805 806 807 809 810 811 811 812 813 813 814 814 815 815 815 815 816 816 817 817 817 817 817 817 817 817 817 817 817 817 817 817 816 816 816 815 815 815 815 814 814 813 812 811 810 809 808 808 807 807 806 805 805 804 804 803 802 801 800 799 798 797
796 797 798 800 800 802 803 804 805 806 807 808 809 809 810 810 811 811 812 812 812 813 814 815 815 815 815 815 815 815 815 815 815 815 815 815 815 815 815 815 814 814 814 814 813 813 812 812 811 810 809 808 807 806 806 806 805 804 803 802 802 801 801 800 799 798 797 796 795
793 795 796 797 799 800 801 802 803 804 805 806 806 807 807 808 809 809 809 810 811 811 812 812 812 812 813 813 813 813 813 813 813 814 814 813 813 813 813 813 812 812 812 812 811 811 810 810 809 808 807 806 805 805 804 804 804 803 801 800 800 799 799 798 797 796 795 793 792
791 793 794 795 796 797 799 800 801 802 803 803 804 804 805 805 806 807 808 808 809 809 810 810 810 810 811 811 811 811 811 811 811 811 812 811 811 811 811 811 810 810 810 810 810 809 809 808 807 806 805 805 804 803 802 802 802 801 800 798 797 797 796 795 794 793 792 791 790
789 790 792 793 794 795 796 798 799 799 800 800 801 802 803 804 804 805 805 806 806 807 808 808 808 809 809 809 809 809 809 809 810 810 810 810 810 810 809 809 809 808 808 808 808 807 807 806 805 804 803 803 802 801 800 800 800 799 797 796 795 794 793 793 792 791 790 789 787
786 787 789 790 792 793 794 795 796 797 798 798 799 800 800 801 802 803 803 804 805 805 806 806 806 807 807 807 807 807 807 807 807 808 808 808 808 808 807 807 807 806 806 806 806 805 805 804 803 802 801 801 800 799 799 798 798 796 795 794 793 792 791 790 789 789 788 786 785
783 785 786 788 789 791 792 793 794 795 795 796 796 797 798 799 800 800 801 802 803 803 803 804 805 805 805 805 805 805 805 805 805 806 806 806 806 805 805 805 805 805 804 804 804 804 803 802 801 800 800 799 798 798 797 796 795 794 793 792 791 790 789 787 787 786 785 784 782
781 782 784 785 787 788 790 790 791 792 793 793 794 795 795 796 797 798 799 800 800 801 801 802 803 803 803 803 803 804 804 804 804 804 804 804 804 804 804 803 803 803 802 802 802 802 801 800 799 798 798 797 796 796 795 794 793 792 791 790 789 788 786 785 784 783 782 781 780
778 780 781 783 785 786 787 788 788 789 790 790 791 792 793 794 795 796 797 798 798 798 799 800 800 801 801 801 801 802 802 802 802 802 802 802 802 802 802 801 801 801 800 800 800 800 799 798 797 797 796 795 794 794 793 792 791 790 789 787 786 786 784 783 781 781 780 779 777
776 778 779 781 782 783 784 785 786 787 787 788 789 790 791 792 793 794 795 795 796 796 797 798 799 799 799 800 800 800 800 800 800 800 800 800 800 800 800 799 799 799 798 798 798 798 797 796 795 795 794 793 792 791 790 790 789 788 787 786 784 783 782 781 779 778 777 776 774
774 775 776 778 779 780 781 782 783 784 785 786 786 787 789 790 791 792 793 794 794 795 796 796 796 797 797 798 798 798 798 798 798 798 798 798 798 798 798 797 797 797 796 796 796 795 795 794 794 793 792 791 790 789 788 787 786 786 784 783 782 781 780 778 777 776 775 773 772
771 772 774 775 776 777 779 780 781 781 782 783 784 785 786 788 789 790 791 792 793 793 794 794 795 795 795 796 796 796 796 796 796 796 796 796 796 796 796 795 795 795 795 794 794 793 793 792 792 791 790 789 788 787 786 785 784 783 782 781 780 779 777 776 775 773 772 771 770
768 770 771 772 773 775 776 777 778 779 780 781 782 783 784 786 787 788 789 790 791 791 792 792 793 793 794 794 794 795 795 795 795 794 794 794 794 794 794 794 793 793 792 792 791 791 790 790 790 789 788 787 786 785 784 783 781 781 780 778 777 776 775 774 772 771 770 769 767
766 767 768 769 771 771 773 774 775 776 777 778 780 781 782 783 785 786 787 788 789 790 790 790 791 791 792 792 792 793 793 793 792 792 792 792 792 792 792 792 791 791 790 790 790 789 788 788 787 787 786 785 784 783 781 780 779 778 777 776 775 774 773 771 770 769 768 766 765
762 764 765 766 767 769 770 771 773 774 775 776 777 779 780 781 783 784 785 786 786 787 788 789 789 790 790 790 790 790 791 790 790 790 790 790 790 790 790 790 790 789 789 788 787 787 786 786 785 785 784 783 782 781 779 778 777 776 775 774 772 771 770 769 768 767 766 764 763
759 761 762 763 764 766 768 769 770 771 773 774 775 776 778 779 781 782 783 783 784 785 786 786 787 787 788 788 788 789 789 789 789 789 789 789 789 789 788 788 787 787 786 786 786 785 784 784 783 782 781 781 779 778 777 776 775 774 772 771 770 769 768 767 766 765 764 762 761
756 757 759 760 762 764 765 766 768 770 771 772 773 774 776 777 778 779 780 781 782 783 784 784 785 785 786 786 786 786 787 787 787 787 787 787 787 786 786 786 786 785 785 784 783 783 782 782 781 780 779 778 777 776 775 774 772 771 770 769 768 767 766 765 764 763 762 761 759
753 755 756 758 760 761 763 764 766 767 769 770 771 772 773 775 776 777 778 779 781 781 781 781 782 783 783 784 784 785 785 785 785 785 785 785 785 785 785 784 784 783 782 782 781 781 780 780 779 778 777 776 775 774 773 771 770 769 767 766 765 764 764 763 762 761 760 759 757
751 752 754 756 757 759 761 762 764 765 766 767 769 770 771 772 773 775 776 777 778 779 779 779 780 781 781 782 782 783 783 783 783 783 783 783 783 783 783 782 782 781 780 780 780 779 778 777 776 776 775 774 773 772 771 770 768 767 765 764 763 763 762 762 761 760 759 757 756
749 751 752 754 755 757 758 760 761 762 764 765 766 767 769 770 771 772 774 775 776 776 777 777 778 779 779 780 781 781 781 781 781 781 781 781 781 781 781 781 780 779 778 778 778 777 776 776 775 774 773 772 771 770 769 768 767 766 764 763 762 762 761 760 760 758 757 756 754
747 748 750 751 753 754 756 757 758 760 761 762 764 765 766 767 769 770 771 772 773 774 775 776 776 777 778 778 779 779 779 779 779 779 779 779 779 779 779 778 778 777 777 776 776 776 775 775 774 773 772 771 770 769 768 767 766 764 763 762 761 760 760 759 758 757 756 754 752
745 746 747 749 750 751 753 754 756 757 758 760 761 762 764 765 766 768 769 770 771 771 773 774 775 775 776 776 777 777 777 777 777 777 777 777 777 777 777 776 776 775 775 775 774 774 774 774 773 772 771 770 769 768 767 765 764 762 761 761 760 759 758 757 756 755 753 752 751
742 744 745 746 747 749 750 751 753 754 756 757 759 760 761 762 764 765 766 767 768 769 771 772 772 773 774 774 775 775 775 775 775 775 775 775 775 775 775 774 774 773 773 773 772 772 772 771 771 771 770 769 767 766 765 763 761 761 760 759 758 757 756 755 754 753 751 750 748
740 741 742 743 745 746 747 749 750 752 753 755 756 757 759 760 762 763 764 765 766 767 768 769 770 771 772 772 772 772 772 773 773 773 773 773 773 773 772 772 772 771 771 771 771 771 770 770 769 768 768 767 766 764 763 761 760 759 758 757 756 756 755 753 752 751 750 748 746
736 738 739 741 741 743 744 746 747 749 750 752 753 755 756 758 759 760 761 762 764 765 766 766 768 769 769 769 769 770 770 771 771 771 771 771 771 771 770 770 770 770 770 770 769 769 768 767 767 766 766 765 764 762 761 760 759 757 756 756 755 754 753 752 751 750 748 747 745
734 735 736 737 738 740 741 742 744 746 747 749 751 752 754 755 756 758 759 760 761 762 763 764 766 766 767 767 767 768 768 769 769 770 770 769 769 768 768 768 768 768 768 768 767 767 766 766 765 764 764 763 762 761 760 758 757 756 755 754 753 752 751 750 749 748 747 745 744
731 732 733 734 736 737 738 739 741 743 745 747 748 750 751 752 753 755 756 757 758 760 761 763 764 764 764 765 766 766 766 766 767 767 767 767 767 766 766 766 766 766 766 766 765 765 764 764 763 762 762 761 760 759 758 757 756 754 753 752 752 751 750 749 748 746 745 744 742
727 729 730 731 732 734 735 737 739 741 743 744 746 747 748 749 751 752 753 755 756 758 760 761 761 761 762 763 763 764 764 765 765 765 766 766 765 765 765 764 764 764 764 764 763 763 762 762 761 761 760 759 758 757 756 755 754 753 752 751 750 749 748 747 746 745 744 743 741
725 726 727 728 730 731 733 735 736 738 740 741 743 744 745 746 748 750 751 753 754 756 757 758 759 759 760 761 761 762 762 762 763 763 764 764 763 763 763 762 762 762 762 762 761 761 761 760 759 759 758 757 756 756 755 754 752 751 750 750 749 748 747 746 745 744 742 741 740
722 723 725 726 727 729 731 732 734 736 737 739 740 741 742 744 746 747 749 750 752 753 754 756 756 757 758 759 759 760 760 761 761 761 761 762 762 761 761 760 760 760 760 760 760 759 759 758 757 757 756 756 755 754 753 752 751 750 749 748 747 746 745 744 743 742 741 740 738
719 721 722 723 725 726 728 730 731 733 735 736 737 738 740 741 743 744 746 747 749 751 752 753 754 755 756 757 757 758 758 759 759 759 760 760 760 759 759 758 758 758 759 759 758 757 757 756 756 755 754 754 753 752 751 750 749 748 747 746 745 744 743 742 741 741 740 738 737
716 718 719 721 722 724 726 727 729 730 731 733 734 736 737 738 740 741 743 746 748 749 751 751 753 753 754 755 755 756 756 756 757 757 758 758 758 757 757 756 756 756 757 757 756 756 755 755 754 753 753 752 751 750 750 749 747 746 746 745 744 743 742 741 740 739 738 737 736
714 715 717 718 720 722 723 725 726 727 729 730 731 732 734 736 737 739 741 744 746 747 748 750 751 751 751 752 753 753 754 755 755 756 756 756 756 756 755 754 754 754 755 755 754 754 753 753 752 752 751 750 750 749 748 747 746 745 744 743 742 741 740 739 739 738 737 736 734
712 714 715 716 718 719 721 722 723 724 726 727 728 730 731 733 735 737 739 741 743 745 746 747 748 749 749 750 751 751 752 753 753 754 754 754 754 754 753 752 752 752 752 753 752 752 751 751 751 750 750 749 748 747 746 745 744 743 742 741 741 740 739 738 737 736 735 734 733
711 712 714 715 716 717 718 720 721 721 722 724 726 728 730 731 733 735 737 739 741 742 744 745 746 746 747 749 750 750 751 751 751 752 752 752 751 752 751 751 750 750 750 751 751 750 750 749 749 748 748 747 746 746 745 744 743 742 741 740 739 738 737 736 736 735 734 733 732
710 711 712 713 714 715 716 717 718 719 720 722 724 726 727 729 731 733 735 737 739 741 742 743 744 745 746 747 748 748 748 749 749 750 750 750 750 750 750 749 748 748 748 749 749 748 748 747 747 747 746 746 745 744 743 742 741 740 740 739 738 737 736 735 734 733 732 731 730
708 710 711 711 712 713 714 715 716 717 718 720 721 723 725 727 729 731 734 736 737 739 740 741 742 743 744 745 746 746 746 746 747 748 748 748 748 748 748 747 747 746 746 746 747 746 746 746 745 745 745 744 743 743 742 741 740 739 738 737 736 736 734 733 732 731 731 730 728
Wind_Speed
36 35 34 33 33 32 32 31 31 30 30 29 28 27 26 25 25 24 24 23 23 22 21 20 18 17 16 16 16 15 15 15 15 15 16 16 16 16 16 16 16 17 17 18 18 19 20 21 21 22 24 25 26 26 27 26 26 26 26 26 26 27 27 28 28 29 29 29 29
37 36 35 34 33 32 32 31 31 31 30 29 28 27 26 25 25 25 24 23 23 21 20 19 18 18 17 16 16 15 15 16 16 16 16 17 17 17 16 17 17 17 18 18 19 20 21 21 22 23 24 25 26 26 27 27 26 25 26 26 27 27 27 27 28 28 28 28 27
38 37 35 35 34 33 33 32 32 31 31 30 28 27 26 26 25 25 24 23 22 21 20 20 19 18 17 16 16 15 16 16 16 16 17 17 17 17 17 17 17 18 18 19 20 20 21 21 22 22 23 24 25 26 26 26 26 25 26 27 26 26 25 25 26 25 25 24 24
40 38 37 36 35 35 34 33 33 32 31 30 28 27 26 26 25 25 24 23 22 21 21 20 19 18 17 16 16 16 16 16 17 17 17 18 17 17 17 17 18 18 19 19 20 20 21 21 21 22 23 24 24 25 26 26 25 25 26 26 26 25 25 24 24 23 23 23 23
41 39 38 37 36 36 35 34 33 32 30 29 28 27 26 26 25 24 24 23 23 22 21 20 19 18 17 17 17 17 17 17 17 17 18 18 18 18 17 18 18 19 19 19 20 20 20 19 20 21 22 23 24 25 25 25 25 25 26 26 25 25 24 23 23 22 22 22 23
42 41 39 38 37 36 35 34 32 31 30 28 28 27 27 26 26 25 25 24 24 22 21 20 19 18 18 17 18 18 17 17 17 18 18 18 18 18 18 18 18 19 19 19 19 19 18 18 19 20 21 22 23 24 24 24 24 25 25 26 25 25 24 24 23 23 23 23 24
43 42 40 38 37 36 35 34 32 31 29 28 28 28 27 27 26 26 25 25 23 22 21 20 20 19 18 18 18 18 18 18 18 18 18 18 18 18 18 18 18 19 19 18 18 17 17 17 19 20 21 21 22 23 23 23 23 24 25 26 26 26 25 25 25 24 24 25 26
43 42 40 39 37 36 35 34 32 31 30 29 29 29 28 27 27 26 25 24 24 23 22 21 20 19 19 19 19 19 19 18 18 18 18 18 18 19 19 19 19 18 18 17 17 17 17 17 19 20 21 21 22 23 23 23 24 25 26 27 28 27 27 26 26 26 26 27 28
43 42 41 39 38 37 35 34 32 31 30 30 29 29 28 27 27 26 25 25 24 23 22 21 21 20 19 19 19 19 19 19 18 18 18 18 19 19 19 19 18 18 17 17 16 17 17 18 19 20 21 21 22 23 24 24 25 26 27 28 29 29 29 28 28 28 28 29 30
44 43 41 39 38 37 35 34 32 31 30 30 29 29 28 27 27 27 26 25 24 23 23 22 21 20 20 20 20 20 19 19 18 18 18 18 19 19 19 19 18 18 17 17 16 16 17 19 20 20 21 21 22 24 24 25 26 27 28 28 28 29 30 31 30 30 30 30 30
45 43 42 40 38 37 36 34 33 32 31 30 30 29 28 28 28 27 26 25 24 24 24 22 21 21 21 21 21 20 19 19 19 19 19 19 19 19 19 19 18 18 17 17 16 17 18 19 20 21 21 21 23 24 25 26 26 27 28 29 29 30 31 32 32 31 30 31 31
45 44 42 40 39 37 36 35 34 32 31 31 30 30 29 29 28 27 26 26 26 25 24 23 22 22 22 22 21 20 20 19 19 19 19 19 20 20 19 19 19 18 17 17 17 17 18 19 20 21 22 22 23 24 25 26 27 28 29 29 30 31 32 33 33 32 31 30 31
45 44 42 40 39 38 37 36 34 33 32 32 31 31 30 30 29 27 27 27 27 26 25 23 22 22 22 22 22 21 20 19 19 19 19 20 20 20 20 19 19 18 17 17 17 17 18 19 20 21 22 23 24 25 26 26 27 28 29 30 30 31 32 33 33 32 32 31 32
44 43 42 41 39 38 37 36 35 34 33 33 32 32 31 30 29 28 27 27 27 26 25 24 23 23 23 23 22 21 20 19 19 19 20 21 21 21 20 20 19 18 18 17 17 18 19 20 21 21 23 24 25 25 26 27 28 28 29 30 31 31 32 33 33 33 32 33 33
44 43 42 41 40 39 38 37 36 35 34 34 33 32 31 30 29 28 28 27 27 26 25 24 24 24 23 23 22 21 20 20 20 20 21 21 21 21 21 20 19 18 18 18 18 18 19 20 21 21 23 24 25 26 27 27 28 29 29 30 31 31 32 33 33 33 33 33 34
43 43 42 41 40 39 39 38 37 36 35 34 34 33 32 31 29 28 28 27 27 26 25 25 25 24 24 23 22 21 21 21 21 21 22 22 22 21 21 20 19 18 18 18 18 19 19 20 21 22 23 24 25 27 27 28 28 29 29 30 30 31 32 33 34 34 34 34 33
43 43 42 42 41 40 39 38 37 37 36 35 34 33 32 31 30 29 28 28 27 26 26 26 25 25 24 23 22 22 21 21 22 22 22 23 22 22 21 20 19 18 18 18 19 19 20 20 21 22 23 24 26 27 27 28 28 28 29 29 30 32 33 34 34 35 35 34 34
43 43 43 42 42 41 40 39 38 37 37 36 35 34 32 31 30 29 28 28 27 27 27 26 26 25 24 24 23 22 22 22 23 23 23 23 22 21 21 20 19 19 18 19 19 20 21 21 21 22 23 24 25 26 27 27 28 28 29 30 31 33 34 34 35 34 34 33 33
43 43 43 43 42 42 41 39 39 38 37 36 35 34 33 31 30 29 28 28 27 27 27 26 26 26 25 24 23 23 23 23 23 23 23 23 22 21 21 20 19 19 19 19 20 20 21 21 22 23 23 24 25 25 26 26 27 28 29 31 32 33 34 34 34 32 31 31 31
43 43 43 43 43 42 41 40 39 38 37 36 35 34 33 31 30 29 28 28 27 27 27 27 26 26 25 24 24 23 23 23 24 24 23 22 22 21 21 20 20 19 19 20 20 21 21 22 22 23 23 24 24 25 25 26 27 29 30 32 33 34 34 33 31 29 28 28 29
43 43 44 44 43 42 41 40 39 38 37 36 35 34 33 31 30 29 28 28 27 26 27 27 27 26 26 25 24 24 24 24 24 24 23 23 22 21 21 20 20 20 20 20 20 21 21 22 22 23 23 23 23 24 25 27 28 30 32 33 33 33 32 29 27 25 25 26 27
43 44 44 44 43 42 41 40 39 38 37 36 35 34 33 32 30 29 28 27 27 27 27 28 27 27 26 25 25 24 24 24 24 24 23 23 22 21 21 20 20 20 21 21 21 21 21 22 22 22 22 22 23 24 26 27 29 31 33 34 33 31 28 24 22 22 23 24 26
43 43 43 43 42 42 41 40 39 38 37 37 35 34 33 32 31 29 28 27 27 27 28 28 28 27 26 25 25 24 24 24 24 24 23 23 22 22 21 20 21 21 21 21 21 21 22 22 22 21 21 22 23 25 26 28 30 31 32 32 30 26 22 20 19 20 22 23 25
42 42 42 42 41 41 40 39 39 38 38 37 36 35 33 32 31 29 28 28 28 28 28 28 28 27 26 25 25 25 25 25 25 24 24 23 22 22 21 21 21 21 21 21 21 21 21 20 20 21 21 23 24 25 26 28 30 31 30 28 24 20 18 17 18 19 21 22 23
41 41 41 41 41 40 40 39 39 39 38 37 36 35 34 32 31 30 29 29 28 28 28 28 28 27 26 25 25 25 25 25 25 25 24 24 23 22 21 21 22 22 22 21 21 20 19 18 19 20 22 23 24 25 27 28 30 30 28 24 19 17 16 17 18 19 20 21 22
40 40 40 40 40 40 40 40 40 39 38 37 36 35 34 33 32 30 30 29 29 29 28 28 28 27 26 26 26 26 26 26 26 25 25 24 23 22 22 22 22 22 22 21 21 20 19 19 20 20 22 23 24 25 26 27 28 27 23 18 15 15 16 17 18 19 20 22 23
39 39 39 40 39 39 39 40 40 39 38 37 36 36 34 33 32 31 30 30 29 29 28 28 28 27 26 26 26 27 27 27 26 26 25 24 23 23 22 22 22 22 22 21 20 20 19 20 20 20 21 22 23 24 25 27 27 24 19 14 13 14 15 17 18 20 21 22 23
38 38 39 39 38 39 39 40 39 39 38 38 37 36 35 33 32 31 31 30 30 29 29 29 28 27 27 27 28 28 28 27 27 26 25 24 24 23 23 23 23 22 21 21 20 20 20 20 20 20 20 21 21 23 25 26 24 20 16 13 13 14 15 17 18 19 21 22 23
38 38 38 38 38 39 39 39 38 39 39 38 37 35 34 33 33 32 31 31 30 30 30 29 29 28 28 28 29 28 28 27 27 26 25 24 24 24 24 23 23 22 21 20 19 20 20 20 20 20 20 20 21 22 23 24 22 19 16 14 14 15 16 17 18 19 20 21 22
38 38 38 38 38 38 39 39 39 39 38 37 36 35 34 33 33 32 32 31 31 31 30 30 29 28 29 29 29 28 28 28 27 26 25 24 24 24 24 23 23 22 21 20 19 20 20 20 20 20 20 20 20 21 22 23 22 19 17 15 15 15 16 17 18 19 20 20 21
38 38 38 38 38 38 39 39 39 38 37 36 35 35 34 33 33 33 33 33 32 31 30 29 29 29 30 29 29 29 28 28 27 26 25 25 24 24 24 23 22 22 21 20 19 20 20 20 20 20 19 19 19 20 21 22 22 20 18 16 15 15 16 17 18 18 19 19 20
38 38 38 38 38 38 38 38 38 37 37 36 35 34 34 34 34 34 33 32 31 30 29 29 30 30 30 29 29 29 29 28 27 26 25 24 24 24 23 23 22 21 20 20 19 20 20 20 20 19 19 19 19 20 21 22 22 21 19 16 15 15 15 16 17 18 18 19 19
38 38 38 38 38 38 37 37 37 36 36 35 35 34 34 34 34 34 33 32 31 30 30 30 30 30 30 30 29 29 29 28 27 26 25 24 23 23 23 23 22 21 20 20 19 19 20 20 20 19 19 19 19 19 20 22 22 21 19 16 15 15 15 16 17 18 18 18 18
38 37 37 37 37 37 36 36 36 35 35 34 34 34 34 34 33 33 32 32 31 30 30 30 31 31 30 30 29 29 29 28 27 26 25 24 23 22 23 23 23 21 20 19 19 19 20 20 20 19 19 18 18 19 20 22 23 21 18 15 15 14 15 15 16 17 17 18 19
38 38 37 37 37 36 35 35 35 34 34 34 34 34 34 34 34 33 33 32 31 30 29 30 30 30 29 29 29 29 29 28 27 26 25 23 22 22 22 23 22 21 20 19 19 19 20 20 19 19 18 18 18 18 20 22 22 20 17 15 14 14 14 15 15 16 17 18 19
38 38 37 37 36 35 35 34 34 34 34 34 34 34 34 34 34 34 33 31 29 28 28 29 29 29 29 29 29 29 29 28 27 26 24 23 22 22 22 23 22 21 19 19 19 19 20 19 19 18 18 18 18 18 19 21 21 19 16 14 14 14 14 14 15 16 17 18 20
38 38 38 37 36 35 35 34 34 34 34 34 35 35 35 34 34 33 32 29 28 27 28 28 29 29 30 30 30 30 29 28 27 25 24 23 22 21 22 22 22 21 20 18 18 19 19 19 18 18 17 17 17 18 19 20 20 18 16 14 14 14 14 14 15 16 17 18 20
37 37 37 36 36 35 35 34 34 34 34 35 35 35 35 34 33 32 31 29 28 27 27 28 29 29 30 30 30 29 28 27 26 25 24 23 22 21 21 22 22 21 20 19 18 18 19 19 18 17 17 17 17 18 19 20 20 18 17 15 15 15 15 15 15 16 17 19 20
36 37 37 36 36 35 35 34 35 35 35 35 35 34 33 33 32 31 30 29 28 28 28 28 29 30 30 29 29 28 28 27 25 24 24 23 21 20 20 21 22 22 20 19 18 18 18 18 18 17 17 17 17 17 18 19 19 18 17 17 18 19 18 17 16 16 17 19 21
35 36 36 36 36 35 35 35 35 36 36 35 34 34 33 32 31 30 29 28 28 27 28 28 29 29 28 27 27 27 27 27 25 24 23 22 21 20 20 20 21 21 21 19 18 18 18 18 18 17 16 16 16 17 18 18 18 17 17 19 21 22 21 19 16 16 18 20 22
35 36 36 36 36 36 35 35 36 36 36 35 34 34 33 32 30 28 27 27 27 27 27 28 29 29 28 27 26 26 26 26 26 24 23 22 21 20 19 20 20 21 21 20 19 19 18 18 17 17 16 16 16 17 17 17 17 16 17 19 22 23 21 19 17 17 19 21 23
Wind_Direction
227 228 229 230 230 231 231 232 232 233 233 234 234 234 235 235 237 239 240 241 242 244 246 247 249 250 250 250 251 253 254 256 257 258 260 262 264 267 270 273 276 279 281 283 284 285 286 287 288 288 288 287 287 287 286 286 286 287 287 287 288 288 288 286 285 284 283 282 280
226 227 229 229 230 230 231 231 231 232 232 233 234 234 234 235 237 239 240 241 242 244 247 248 249 250 251 251 253 255 257 258 259 260 262 263 265 268 271 275 278 280 283 284 286 286 287 288 289 289 288 287 286 286 286 286 286 287 287 287 287 287 286 285 284 284 284 283 281
226 227 228 228 229 229 230 230 230 231 231 232 233 234 234 235 237 239 241 242 244 245 247 248 248 250 251 253 254 255 257 259 261 262 263 264 266 269 272 275 279 281 284 285 287 288 288 289 289 289 287 286 286 286 286 286 286 286 286 286 286 286 284 283 282 282 282 281 280
226 226 227 227 228 229 229 230 231 231 231 232 232 233 234 236 237 239 241 243 243 244 245 246 248 250 252 254 255 256 257 258 260 263 264 266 267 270 273 276 280 282 284 286 287 288 288 289 288 287 286 286 286 286 286 286 287 287 286 286 286 284 282 281 281 281 280 279 279
225 226 227 228 228 229 230 231 232 232 232 232 232 233 234 235 237 239 240 242 242 243 244 246 248 250 252 253 255 256 256 257 260 262 264 267 269 271 274 278 281 283 285 287 287 288 288 288 288 287 287 287 287 286 287 288 288 288 287 286 285 283 282 280 280 280 279 278 278
225 226 227 228 229 229 230 231 232 232 232 232 232 233 234 235 236 237 239 241 242 243 244 246 247 249 251 252 254 255 256 257 258 260 263 267 270 273 275 278 281 283 285 285 286 287 288 289 289 289 288 289 288 288 289 290 289 288 287 286 284 282 281 279 279 278 278 277 277
226 227 227 228 229 229 230 231 231 232 232 232 232 233 234 235 236 237 239 241 243 244 244 245 246 248 250 252 253 255 256 257 258 260 263 266 270 273 276 278 280 282 282 283 285 286 288 290 290 291 291 290 289 290 290 291 289 288 287 285 285 284 281 280 279 279 278 277 277
227 228 228 229 229 229 229 230 230 231 231 232 232 233 234 235 236 238 240 241 243 243 243 244 245 247 249 251 253 254 255 256 258 260 263 266 270 273 275 277 278 279 280 282 284 287 289 291 292 292 293 292 290 290 291 292 290 288 287 286 285 285 283 281 280 279 278 278 278
226 228 229 229 229 229 230 230 230 230 231 232 232 233 234 235 236 238 239 241 242 243 243 243 245 246 249 251 252 253 254 256 258 261 263 266 269 272 273 275 275 277 278 281 285 288 291 293 292 293 293 293 292 292 294 294 292 289 287 286 286 285 284 283 281 280 279 279 278
226 227 228 228 229 229 229 229 230 231 232 233 233 234 234 235 236 238 239 241 242 243 243 243 244 246 248 249 251 252 254 256 258 261 263 266 268 270 272 272 274 276 278 281 285 289 292 293 293 293 293 294 294 295 296 295 292 290 288 287 286 286 286 285 284 282 280 279 278
226 227 228 228 229 228 228 228 229 230 231 233 234 234 235 235 236 238 239 241 242 242 242 242 244 245 247 248 250 251 253 255 258 261 263 265 267 268 269 271 273 275 279 282 286 289 291 292 292 293 295 296 296 296 296 295 293 291 289 288 287 287 287 287 286 284 281 280 279
226 228 229 229 229 228 227 227 228 229 230 232 233 234 234 235 236 237 239 240 241 242 242 242 243 245 247 248 249 251 253 255 258 261 262 264 265 266 268 269 272 275 279 282 286 289 290 291 292 294 295 296 297 296 295 294 293 291 290 290 289 288 287 287 287 286 284 282 281
226 227 228 229 228 227 226 226 227 228 230 231 232 233 234 235 236 237 238 239 240 241 242 242 243 244 246 248 250 251 253 256 258 260 262 263 264 265 266 268 271 275 279 282 285 288 290 291 292 294 295 296 296 296 295 294 292 290 289 289 289 288 287 287 288 288 287 285 283
226 227 228 228 228 227 226 226 227 228 229 231 232 233 234 235 236 236 237 239 240 241 242 242 243 244 245 247 249 252 254 256 258 260 261 262 262 263 265 268 271 275 279 282 285 287 290 291 292 294 295 296 296 297 297 295 293 291 290 289 288 288 288 289 290 289 288 286 285
225 226 227 227 227 226 225 225 226 228 229 231 232 233 234 235 236 236 237 239 240 242 242 243 243 244 245 247 249 252 254 256 258 259 259 260 261 262 264 267 271 275 279 282 285 288 290 291 293 294 295 296 297 298 298 296 294 293 291 290 289 289 290 290 291 290 289 288 287
224 225 226 226 226 226 225 225 226 228 229 231 232 233 234 235 235 236 237 238 240 242 242 243 243 244 245 246 249 251 254 256 257 257 258 258 260 261 264 268 272 276 280 283 286 288 290 292 294 296 297 297 297 298 297 297 296 294 293 292 292 291 291 292 292 291 291 290 288
223 224 225 225 226 226 226 226 226 228 229 231 232 233 234 235 235 236 236 238 240 241 242 243 243 244 245 246 248 251 253 255 256 256 256 258 259 262 265 268 273 277 281 284 287 289 290 293 295 296 298 298 298 297 297 297 297 296 296 296 295 295 295 295 294 293 293 292 290
222 223 224 225 225 226 226 226 227 228 230 231 232 233 234 235 235 236 236 238 239 241 242 243 243 244 245 246 248 250 252 254 255 255 256 257 259 262 266 270 274 278 281 284 287 289 291 294 296 298 299 299 298 298 298 298 297 298 298 299 299 298 298 297 296 296 294 293 291
221 222 223 224 225 226 227 227 228 229 230 231 232 234 234 235 236 236 237 237 239 240 242 243 243 244 245 246 248 250 251 253 254 255 256 257 260 263 267 271 275 278 281 284 287 289 292 295 297 299 300 300 299 299 298 299 299 299 300 300 300 299 299 298 298 297 295 293 292
221 222 223 224 226 227 227 227 228 229 230 231 233 234 235 236 236 237 237 237 238 240 241 243 243 244 245 246 248 249 251 252 254 255 256 258 260 263 267 272 276 279 282 284 287 289 292 295 297 299 300 300 299 299 300 301 301 301 301 300 299 299 299 298 298 297 295 293 292
221 222 223 225 226 227 227 228 228 229 230 231 233 234 235 236 237 237 237 238 239 240 241 242 243 244 245 246 248 249 250 252 253 254 256 258 260 264 268 272 277 280 282 284 287 289 293 295 298 299 300 300 300 301 302 302 302 302 301 300 299 298 298 297 296 295 294 293 293
222 223 224 225 226 227 228 228 228 229 230 231 232 234 235 236 237 237 237 238 239 239 240 241 242 244 245 246 248 250 251 252 253 254 256 258 260 264 268 272 277 280 282 284 287 289 292 295 297 298 299 300 301 303 303 303 301 301 300 299 298 297 296 296 295 294 294 295 295
222 223 224 225 226 227 227 228 228 228 229 231 232 234 235 236 237 237 237 237 238 239 240 241 242 243 245 247 249 250 252 253 253 254 255 258 261 264 268 272 277 279 281 283 286 290 292 295 297 298 300 301 302 302 302 301 300 299 297 296 294 294 294 294 293 294 297 299 299
222 223 224 225 225 226 226 227 227 228 229 230 232 233 234 235 236 236 236 236 237 238 239 241 242 243 245 247 249 251 252 253 254 254 255 257 261 264 269 272 275 278 280 282 286 289 291 292 294 296 297 298 297 297 297 297 296 295 293 291 291 292 292 292 293 297 301 304 305
221 222 223 223 224 224 225 226 226 227 229 230 231 233 234 235 235 235 235 236 236 237 239 240 242 243 245 246 248 250 251 252 253 255 256 258 261 264 268 272 275 277 279 282 286 288 287 283 284 287 289 289 290 292 293 294 293 292 290 289 291 292 292 293 296 301 306 310 313
221 221 221 222 223 223 224 225 226 227 229 230 231 232 233 234 235 235 235 235 236 237 238 240 241 243 244 246 248 249 250 251 253 254 257 259 262 265 268 271 274 276 279 282 287 286 282 279 280 282 284 286 288 290 291 292 292 291 290 291 292 292 293 295 299 304 309 315 318
220 220 220 221 222 222 223 225 226 227 228 229 230 231 232 233 234 234 235 235 236 237 238 239 241 242 244 246 248 249 250 251 252 254 257 260 263 266 269 271 274 276 279 283 286 285 282 281 282 283 285 287 289 291 292 292 292 291 292 294 295 294 295 296 300 305 310 316 320
219 219 219 220 220 221 223 224 225 226 227 228 230 231 232 232 233 234 234 235 236 237 238 239 240 241 243 245 247 249 250 251 252 254 257 260 263 266 269 271 274 276 279 283 285 284 282 283 284 286 287 288 289 291 292 293 293 294 296 298 299 298 297 297 300 304 310 315 320
218 218 218 218 219 220 222 222 223 225 227 228 229 230 231 231 232 233 234 235 236 236 237 238 239 240 242 244 246 248 250 251 253 254 257 260 263 266 268 271 274 276 279 284 284 283 283 285 286 287 288 289 290 291 293 294 295 296 299 301 302 301 300 298 300 303 308 314 319
218 217 217 217 218 219 220 221 223 225 226 227 227 228 229 230 231 232 233 234 235 236 236 237 239 240 242 244 246 248 250 251 253 254 256 259 262 265 268 271 274 276 280 284 284 284 284 286 287 288 289 290 290 292 293 295 296 298 300 302 303 302 301 299 299 302 306 312 318
217 216 216 217 217 218 220 221 223 224 224 225 225 226 227 228 229 231 232 233 234 235 236 237 239 241 243 245 247 249 250 252 253 254 256 258 261 265 268 271 274 277 279 283 285 285 285 286 288 288 290 290 291 293 295 297 298 299 300 301 302 302 300 298 298 300 304 311 317
216 216 216 216 217 218 219 221 221 222 222 223 223 224 225 227 229 231 232 233 234 234 236 237 239 241 243 245 247 249 250 252 253 254 256 259 262 265 269 272 274 276 279 282 285 285 285 287 288 289 290 291 291 293 295 297 298 298 298 299 302 302 299 296 295 297 302 308 315
215 215 215 215 216 217 219 219 219 220 220 221 222 223 224 226 229 230 231 232 232 233 235 236 238 240 243 245 247 248 250 252 253 255 257 259 262 266 269 272 273 275 279 283 286 286 286 287 288 289 290 291 292 293 296 298 297 296 295 297 301 301 298 294 292 295 300 307 314
214 214 214 215 216 216 217 217 218 218 218 219 220 222 224 225 226 228 229 230 231 232 234 237 239 241 243 245 247 249 251 253 254 256 257 259 262 266 269 271 273 275 279 284 286 287 287 288 289 290 290 291 292 294 296 297 296 294 293 296 299 299 295 292 291 294 300 307 313
213 213 214 215 215 215 215 215 216 216 216 217 219 221 223 224 225 226 228 229 230 231 234 237 240 242 244 246 248 250 252 253 255 256 258 259 262 265 268 270 272 275 279 284 286 287 287 288 289 289 290 291 292 294 296 297 294 291 291 295 297 296 293 291 291 296 302 309 314
213 212 213 213 214 214 214 214 213 213 214 215 217 219 221 223 225 226 227 227 227 230 233 237 240 242 244 246 248 250 251 253 254 256 258 260 263 265 267 270 272 274 278 283 286 287 286 287 288 289 290 291 292 294 296 296 293 290 290 293 295 295 293 292 294 299 306 312 315
213 213 212 213 213 212 212 212 211 211 213 215 216 218 220 221 223 225 225 224 224 227 232 236 239 241 243 246 248 250 251 253 255 257 259 260 262 264 267 270 272 275 279 283 287 287 286 286 287 288 289 290 291 294 296 296 293 290 289 292 295 298 298 297 298 304 310 315 318
214 213 213 212 212 212 211 211 210 211 212 215 217 218 220 220 221 222 222 221 222 225 230 235 238 241 244 246 249 251 253 254 255 257 259 260 261 263 266 270 273 276 280 284 288 288 286 286 286 286 287 288 290 293 295 296 293 291 290 293 300 304 305 304 305 308 314 318 320
214 214 213 213 212 212 211 210 210 211 213 215 216 217 218 219 219 220 220 221 222 225 229 234 238 241 244 247 249 252 254 255 255 256 258 259 261 263 265 270 274 278 281 286 289 288 286 285 285 285 285 286 288 291 293 295 294 293 295 300 307 310 310 308 308 311 316 320 321
215 215 214 214 213 212 211 211 212 213 214 214 215 215 217 218 218 219 219 220 222 226 230 234 238 242 244 246 249 252 254 255 255 256 256 258 260 262 264 269 274 278 282 286 288 287 285 284 283 283 283 284 286 288 291 293 295 297 302 308 310 310 308 307 309 314 319 321 321
216 215 215 215 214 213 212 212 213 214 215 215 214 215 216 217 216 216 216 218 222 226 231 235 239 242 244 246 248 251 254 255 256 255 256 257 258 260 263 267 273 278 282 284 285 285 284 283 282 282 282 282 283 286 288 291 295 300 306 309 309 306 303 304 311 318 322 322 321